H1 CPF 2 NER 2021 6 27 9 178 01 glonass143 H2 2007501 9143 46805 2021 6 27 0 0 0 2021 6 30 23 45 0 900 1 1 0 0 0 1 H9 10 0 59392 0.00000 0 12971869.528 5603687.431 21253034.171 10 0 59392 900.00000 0 10493829.612 6636414.630 22297323.388 10 0 59392 1800.00000 0 8007794.735 7895100.094 22909262.361 10 0 59392 2700.00000 0 5579560.575 9357435.936 23076953.131 10 0 59392 3600.00000 0 3270367.462 10989675.487 22797092.832 10 0 59392 4500.00000 0 1134559.251 12747891.810 22075041.151 10 0 59392 5400.00000 0 -782460.605 14579678.443 20924722.496 10 0 59392 6300.00000 0 -2445891.763 16426222.978 19368364.155 10 0 59392 7200.00000 0 -3832750.066 18224668.194 17436074.776 10 0 59392 8100.00000 0 -4932581.211 19910663.286 15165270.298 10 0 59392 9000.00000 0 -5747645.722 21420999.377 12599957.392 10 0 59392 9900.00000 0 -6292567.890 22696219.444 9789887.340 10 0 59392 10800.00000 0 -6593463.783 23683093.365 6789595.918 10 0 59392 11700.00000 0 -6686585.310 24336853.917 3657347.320 10 0 59392 12600.00000 0 -6616537.852 24623099.120 454002.470 10 0 59392 13500.00000 0 -6434147.165 24519280.033 -2758166.215 10 0 59392 14400.00000 0 -6194066.385 24015710.359 -5916690.171 10 0 59392 15300.00000 0 -5952225.147 23116054.277 -8960125.772 10 0 59392 16200.00000 0 -5763229.804 21837270.992 -11829256.586 10 0 59392 17100.00000 0 -5677825.876 20209017.474 -14468252.616 10 0 59392 18000.00000 0 -5740531.295 18272533.910 -16825763.059 10 0 59392 18900.00000 0 -5987541.725 16079058.257 -18855920.703 10 0 59392 19800.00000 0 -6444997.600 13687836.173 -20519238.038 10 0 59392 20700.00000 0 -7127687.070 11163809.696 -21783377.304 10 0 59392 21600.00000 0 -8038240.409 8575081.305 -22623779.617 10 0 59392 22500.00000 0 -9166850.628 5990259.320 -23024141.074 10 0 59392 23400.00000 0 -10491532.596 3475795.339 -22976726.925 10 0 59392 24300.00000 0 -11978910.298 1093424.432 -22482518.081 10 0 59392 25200.00000 0 -13585499.563 -1102185.766 -21551187.494 10 0 59392 26100.00000 0 -15259432.676 -3065479.821 -20200907.214 10 0 59392 27000.00000 0 -16942552.761 -4761668.950 -18457990.157 10 0 59392 27900.00000 0 -18572790.255 -6167927.511 -16356373.722 10 0 59392 28800.00000 0 -20086721.837 -7274082.976 -13936955.461 10 0 59392 29700.00000 0 -21422204.549 -8082772.328 -11246793.877 10 0 59392 30600.00000 0 -22520974.593 -8609060.066 -8338189.959 10 0 59392 31500.00000 0 -23331101.714 -8879535.671 -5267667.582 10 0 59392 32400.00000 0 -23809196.157 -8930930.176 -2094872.785 10 0 59392 33300.00000 0 -23922275.596 -8808311.693 1118586.428 10 0 59392 34200.00000 0 -23649213.700 -8562937.279 4310336.860 10 0 59392 35100.00000 0 -22981709.683 -8249852.891 7418450.026 10 0 59392 36000.00000 0 -21924738.293 -7925343.534 10382641.575 10 0 59392 36900.00000 0 -20496461.474 -7644341.771 13145436.876 10 0 59392 37800.00000 0 -18727605.497 -7457904.240 15653280.408 10 0 59392 38700.00000 0 -16660329.484 -7410862.710 17857567.874 10 0 59392 39600.00000 0 -14346632.396 -7539748.601 19715581.556 10 0 59392 40500.00000 0 -11846364.467 -7871078.313 21191311.570 10 0 59392 41400.00000 0 -9224925.204 -8420071.474 22256147.935 10 0 59392 42300.00000 0 -6550742.876 -9189856.154 22889430.769 10 0 59392 43200.00000 0 -3892639.140 -10171194.776 23078848.642 10 0 59392 44100.00000 0 -1317186.998 -11342742.998 22820677.796 10 0 59392 45000.00000 0 1113829.419 -12671831.606 22119857.666 10 0 59392 45900.00000 0 3345749.044 -14115739.936 20989901.106 10 0 59392 46800.00000 0 5333066.239 -15623408.834 19452640.457 10 0 59392 47700.00000 0 7041077.752 -17137522.741 17537813.627 10 0 59392 48600.00000 0 8447076.510 -18596874.947 15282497.201 10 0 59392 49500.00000 0 9541043.109 -19938917.841 12730396.485 10 0 59392 50400.00000 0 10325806.516 -21102391.835 9931005.293 10 0 59392 51300.00000 0 10816667.645 -22029922.781 6938650.932 10 0 59392 52200.00000 0 11040501.984 -22670478.569 3811442.290 10 0 59392 53100.00000 0 11034379.313 -22981580.959 610141.311 10 0 59392 54000.00000 0 10843759.192 -22931178.621 -2603020.191 10 0 59392 54900.00000 0 10520338.943 -22499101.376 -5765554.998 10 0 59392 55800.00000 0 10119645.812 -21678033.119 -8815941.853 10 0 59392 56700.00000 0 9698475.993 -20473961.188 -11694829.233 10 0 59392 57600.00000 0 9312289.881 -18906082.133 -14346197.226 10 0 59392 58500.00000 0 9012674.766 -17006166.850 -16718454.039 10 0 59392 59400.00000 0 8844983.318 -14817411.055 -18765445.172 10 0 59392 60300.00000 0 8846248.667 -12392818.702 -20447355.175 10 0 59392 61200.00000 0 9043464.950 -9793185.782 -21731484.183 10 0 59392 62100.00000 0 9452306.591 -7084768.620 -22592884.126 10 0 59392 63000.00000 0 10076340.875 -4336733.813 -23014842.479 10 0 59392 63900.00000 0 10906767.309 -1618496.107 -22989204.408 10 0 59392 64800.00000 0 11922695.045 1002945.188 -22516527.460 10 0 59392 65700.00000 0 13091946.839 3465560.775 -21606066.184 10 0 59392 66600.00000 0 14372355.792 5714631.150 -20275587.298 10 0 59392 67500.00000 0 15713500.419 7704775.073 -18551019.306 10 0 59392 68400.00000 0 17058805.102 9401583.340 -16465943.539 10 0 59392 69300.00000 0 18347917.574 10782791.006 -14060936.710 10 0 59392 70200.00000 0 19519263.426 11838940.680 -11382777.898 10 0 59392 71100.00000 0 20512670.154 12573510.862 -8483535.488 10 0 59392 72000.00000 0 21271950.272 13002505.644 -5419552.060 10 0 59392 72900.00000 0 21747334.735 13153524.816 -2250347.186 10 0 59392 73800.00000 0 21897654.264 13064355.123 962540.320 10 0 59392 74700.00000 0 21692176.746 12781143.434 4156747.842 10 0 59392 75600.00000 0 21112023.441 12356230.103 7270298.673 10 0 59392 76500.00000 0 20151104.418 11845734.838 10242802.406 10 0 59392 77400.00000 0 18816533.936 11306997.534 13016622.641 10 0 59392 78300.00000 0 17128508.158 10795982.393 15537989.568 10 0 59392 79200.00000 0 15119650.092 10364754.842 17758036.301 10 0 59392 80100.00000 0 12833848.727 10059137.427 19633739.375 10 0 59392 81000.00000 0 10324640.233 9916643.135 21128745.955 10 0 59392 81900.00000 0 7653197.794 9964772.815 22214072.536 10 0 59392 82800.00000 0 4886012.816 10219748.036 22868662.334 10 0 59392 83700.00000 0 2092362.614 10685732.617 23079791.255 10 0 59392 84600.00000 0 -658331.578 11354575.726 22843314.988 10 0 59392 85500.00000 0 -3299147.939 12206087.823 22163752.577 10 0 59393 0.00000 0 -5768200.394 13208838.660 21054204.718 10 0 59393 900.00000 0 -8010963.860 14321445.081 19536107.602 10 0 59393 1800.00000 0 -9982293.134 15494295.185 17638826.865 10 0 59393 2700.00000 0 -11648051.401 16671638.386 15399097.763 10 0 59393 3600.00000 0 -12986282.532 17793953.970 12860321.979 10 0 59393 4500.00000 0 -13987877.472 18800499.620 10071733.395 10 0 59393 5400.00000 0 -14656707.820 19631933.023 7087448.252 10 0 59393 6300.00000 0 -15009221.092 20232896.152 3965417.487 10 0 59393 7200.00000 0 -15073514.917 20554452.906 766301.400 10 0 59393 8100.00000 0 -14887929.512 20556276.486 -2447711.451 10 0 59393 9000.00000 0 -14499218.230 20208493.162 -5614117.795 10 0 59393 9900.00000 0 -13960373.970 19493103.328 -8671321.286 10 0 59393 10800.00000 0 -13328204.086 18404918.540 -11559837.729 10 0 59393 11700.00000 0 -12660757.132 16951973.663 -14223459.568 10 0 59393 12600.00000 0 -12014711.160 15155395.554 -16610356.101 10 0 59393 13500.00000 0 -11442834.893 13048732.700 -18674087.387 10 0 59393 14400.00000 0 -10991629.850 10676773.087 -20374511.654 10 0 59393 15300.00000 0 -10699253.714 8093899.191 -21678568.278 10 0 59393 16200.00000 0 -10593813.065 5362048.452 -22560921.106 10 0 59393 17100.00000 0 -10692097.823 2548364.000 -23004449.819 10 0 59393 18000.00000 0 -10998810.835 -277366.578 -23000580.045 10 0 59393 18900.00000 0 -11506325.081 -3045378.074 -22549446.214 10 0 59393 19800.00000 0 -12194978.535 -5688589.485 -21659884.380 10 0 59393 20700.00000 0 -13033894.076 -8145150.497 -20349255.494 10 0 59393 21600.00000 0 -13982289.667 -10360767.408 -18643102.855 10 0 59393 22500.00000 0 -14991223.374 -12290712.566 -16574650.605 10 0 59393 23400.00000 0 -16005699.509 -13901434.635 -14184153.190 10 0 59393 24300.00000 0 -16967046.905 -15171703.879 -11518108.585 10 0 59393 25200.00000 0 -17815468.962 -16093246.107 -8628350.667 10 0 59393 26100.00000 0 -18492657.735 -16670840.317 -5571038.658 10 0 59393 27000.00000 0 -18944361.751 -16921877.646 -2405563.444 10 0 59393 27900.00000 0 -19122799.129 -16875401.783 806607.706 10 0 59393 28800.00000 0 -18988814.188 -16570672.702 4003125.243 10 0 59393 29700.00000 0 -18513686.562 -16055315.496 7121966.850 10 0 59393 30600.00000 0 -17680516.529 -15383133.407 10102638.788 10 0 59393 31500.00000 0 -16485128.131 -14611677.911 12887345.642 10 0 59393 32400.00000 0 -14936451.906 -13799678.762 15422106.054 10 0 59393 33300.00000 0 -13056370.769 -13004442.346 17657793.172 10 0 59393 34200.00000 0 -10879035.029 -12279327.749 19551080.198 10 0 59393 35100.00000 0 -8449674.371 -11671406.392 21065273.463 10 0 59393 36000.00000 0 -5822955.424 -11219403.110 22171017.699 10 0 59393 36900.00000 0 -3060952.214 -10952004.742 22846860.577 10 0 59393 37800.00000 0 -230812.565 -10886606.782 23079666.265 10 0 59393 38700.00000 0 2597784.078 -11028550.523 22864870.428 10 0 59393 39600.00000 0 5355273.293 -11370882.688 22206571.859 10 0 59393 40500.00000 0 7974848.392 -11894647.978 21117458.809 10 0 59393 41400.00000 0 10394990.918 -12569702.804 19618570.922 10 0 59393 42300.00000 0 12561784.806 -13356016.828 17738900.623 10 0 59393 43200.00000 0 14430918.982 -14205408.496 15514840.702 10 0 59393 44100.00000 0 15969295.669 -15063642.455 12989487.738 10 0 59393 45000.00000 0 17156177.668 -15872801.269 10211813.867 10 0 59393 45900.00000 0 17983826.964 -16573831.996 7235722.129 10 0 59393 46800.00000 0 18457608.093 -17109160.320 4119003.067 10 0 59393 47700.00000 0 18595551.982 -17425261.653 922212.640 10 0 59393 48600.00000 0 18427398.813 -17475079.989 -2292506.719 10 0 59393 49500.00000 0 17993160.510 -17220191.282 -5462638.645 10 0 59393 50400.00000 0 17341263.833 -16632618.749 -8526514.674 10 0 59393 51300.00000 0 16526353.066 -15696221.973 -11424520.836 10 0 59393 52200.00000 0 15606845.760 -14407599.704 -14100264.701 10 0 59393 53100.00000 0 14642345.580 -12776466.867 -16501679.259 10 0 59393 54000.00000 0 13691022.283 -10825488.571 -18582041.512 10 0 59393 54900.00000 0 12807070.184 -8589576.927 -20300885.496 10 0 59393 55800.00000 0 12038352.934 -6114679.256 -21624791.667 10 0 59393 56700.00000 0 11424334.320 -3456107.660 -22528037.289 10 0 59393 57600.00000 0 10994382.473 -676479.189 -22993095.379 10 0 59393 58500.00000 0 10766518.852 2156647.873 -23010972.770 10 0 59393 59400.00000 0 10746664.410 4973343.448 -22581381.129 10 0 59393 60300.00000 0 10928414.245 7703974.314 -21712737.992 10 0 59393 61200.00000 0 11293349.685 10281861.244 -20421998.145 10 0 59393 62100.00000 0 11811874.048 12645814.650 -18734318.939 10 0 59393 63000.00000 0 12444536.277 14742443.938 -16682566.226 10 0 59393 63900.00000 0 13143786.079 16528145.130 -14306670.732 10 0 59393 64800.00000 0 13856086.054 17970685.005 -11652847.508 10 0 59393 65700.00000 0 14524291.244 19050316.834 -8772693.759 10 0 59393 66600.00000 0 15090195.305 19760382.398 -5722182.832 10 0 59393 67500.00000 0 15497135.485 20107376.566 -2560574.118 10 0 59393 68400.00000 0 15692546.175 20110473.264 650739.703 10 0 59393 69300.00000 0 15630353.019 19800534.167 3849425.330 10 0 59393 70200.00000 0 15273106.375 19218643.139 6973418.062 10 0 59393 71100.00000 0 14593763.985 18414229.216 9962123.983 10 0 59393 72000.00000 0 13577047.525 17442857.967 12757591.696 10 0 59393 72900.00000 0 12220315.707 16363784.727 15305631.101 10 0 59393 73800.00000 0 10533916.761 15237372.856 17556857.933 10 0 59393 74700.00000 0 8541005.015 14122485.503 19467644.318 10 0 59393 75600.00000 0 6276828.396 13073960.093 21000957.670 10 0 59393 76500.00000 0 3787515.601 12140271.004 22127072.503 10 0 59393 77400.00000 0 1128412.327 11361477.862 22824142.078 10 0 59393 78300.00000 0 -1637965.606 10767544.788 23078619.514 10 0 59393 79200.00000 0 -4444278.702 10377100.471 22885520.652 10 0 59393 80100.00000 0 -7220913.831 10196690.631 22248523.707 10 0 59393 81000.00000 0 -9898633.593 10220554.057 21179903.671 10 0 59393 81900.00000 0 -12411216.437 10430931.681 19700302.191 10 0 59393 82800.00000 0 -14697978.994 10798896.066 17838336.660 10 0 59393 83700.00000 0 -16706076.772 11285666.955 15630055.113 10 0 59393 84600.00000 0 -18392488.118 11844358.154 13118246.415 10 0 59393 85500.00000 0 -19725599.028 12422082.731 10351618.146 10 0 59394 0.00000 0 -20686322.888 12962328.235 7383857.297 10 0 59394 900.00000 0 -21268708.057 13407501.623 4272590.961 10 0 59394 1800.00000 0 -21480008.377 13701536.858 1078267.960 10 0 59394 2700.00000 0 -21340212.408 13792453.259 -2137018.152 10 0 59394 3600.00000 0 -20881052.637 13634756.826 -5310740.547 10 0 59394 4500.00000 0 -20144535.515 13191580.872 -8381161.121 10 0 59394 5400.00000 0 -19181055.156 12436474.497 -11288538.455 10 0 59394 6300.00000 0 -18047170.621 11354761.668 -13976297.383 10 0 59394 7200.00000 0 -16803141.227 9944412.084 -16392136.490 10 0 59394 8100.00000 0 -15510324.526 8216385.601 -18489051.361 10 0 59394 9000.00000 0 -14228547.270 6194434.372 -20226253.178 10 0 59394 9900.00000 0 -13013560.755 3914369.875 -21569964.478 10 0 59394 10800.00000 0 -11914687.977 1422824.555 -22494076.609 10 0 59394 11700.00000 0 -10972761.765 -1224440.928 -22980656.259 10 0 59394 12600.00000 0 -10218440.468 -3964614.695 -23020291.472 10 0 59394 13500.00000 0 -9670971.592 -6730208.781 -22612270.840 10 0 59394 14400.00000 0 -9337454.740 -9451633.903 -21764592.764 10 0 59394 15300.00000 0 -9212634.033 -12059866.987 -20493804.961 10 0 59394 16200.00000 0 -9279227.816 -14489100.864 -18824677.656 10 0 59394 17100.00000 0 -9508780.800 -16679266.391 -16789717.003 10 0 59394 18000.00000 0 -9863001.788 -18578322.480 -14428528.398 10 0 59394 18900.00000 0 -10295529.709 -20144219.364 -11787042.216 10 0 59394 19800.00000 0 -10754052.644 -21346454.125 -8916617.126 10 0 59394 20700.00000 0 -11182689.707 -22167154.473 -5873038.667 10 0 59394 21600.00000 0 -11524534.607 -22601646.684 -2715432.746 10 0 59394 22500.00000 0 -11724252.949 -22658485.165 494884.585 10 0 59394 23400.00000 0 -11730623.187 -22358943.690 3695598.385 10 0 59394 24300.00000 0 -11498913.578 -21735990.936 6824603.765 10 0 59394 25200.00000 0 -10992994.575 -20832794.437 9821208.910 10 0 59394 26100.00000 0 -10187097.280 -19700816.743 12627308.778 10 0 59394 27000.00000 0 -9067143.633 -18397584.409 15188506.880 10 0 59394 27900.00000 0 -7631591.914 -16984223.811 17455163.836 10 0 59394 28800.00000 0 -5891761.564 -15522867.270 19383352.850 10 0 59394 29700.00000 0 -3871622.915 -14074037.952 20935704.365 10 0 59394 30600.00000 0 -1607059.604 -12694122.579 22082124.335 10 0 59394 31500.00000 0 855366.712 -11433037.084 22800372.930 10 0 59394 32400.00000 0 3460099.287 -10332182.053 23076493.179 10 0 59394 33300.00000 0 6144648.456 -9422772.671 22905081.682 10 0 59394 34200.00000 0 8841948.851 -8724612.325 22289396.307 10 0 59394 35100.00000 0 11482915.386 -8245360.631 21241298.664 10 0 59394 36000.00000 0 13999093.366 -7980326.179 19781031.962 10 0 59394 36900.00000 0 16325293.784 -7912792.611 17936837.803 10 0 59394 37800.00000 0 18402105.271 -8014864.433 15744418.396 10 0 59394 38700.00000 0 20178178.832 -8248797.257 13246253.513 10 0 59394 39600.00000 0 21612190.397 -8568756.810 10490784.451 10 0 59394 40500.00000 0 22674399.378 -8922932.800 7531479.950 10 0 59394 41400.00000 0 23347737.880 -9255918.518 4425801.521 10 0 59394 42300.00000 0 23628384.625 -9511255.488 1234088.044 10 0 59394 43200.00000 0 23525799.261 -9634035.072 -1981618.710 10 0 59394 44100.00000 0 23062215.339 -9573446.199 -5158784.470 10 0 59394 45000.00000 0 22271613.225 -9285160.291 -8235604.533 10 0 59394 45900.00000 0 21198216.258 -8733451.199 -11152212.990 10 0 59394 46800.00000 0 19894573.805 -7892958.968 -13851854.729 10 0 59394 47700.00000 0 18419312.371 -6750021.413 -16281996.512 10 0 59394 48600.00000 0 16834650.076 -5303515.757 -18395354.831 10 0 59394 49500.00000 0 15203779.622 -3565173.390 -20150820.062 10 0 59394 50400.00000 0 13588230.413 -1559353.249 -21514258.589 10 0 59394 51300.00000 0 12045321.042 677717.836 -22459177.306 10 0 59394 52200.00000 0 10625809.260 3099206.979 -22967237.698 10 0 59394 53100.00000 0 9371837.982 5649387.182 -23028609.800 10 0 59394 54000.00000 0 8315263.075 8265728.546 -22642159.547 10 0 59394 54900.00000 0 7476432.355 10881281.997 -21815466.241 10 0 59394 55800.00000 0 6863466.110 13427256.538 -20564670.195 10 0 59394 56700.00000 0 6472068.188 15835683.030 -18914153.788 10 0 59394 57600.00000 0 6285874.331 18042053.909 -16896062.375 10 0 59394 58500.00000 0 6277321.813 19987829.219 -14549674.545 10 0 59394 59400.00000 0 6409002.494 21622704.949 -11920634.143 10 0 59394 60300.00000 0 6635441.090 22906549.666 -9060059.078 10 0 59394 61200.00000 0 6905222.574 23810929.208 -6023544.509 10 0 59394 62100.00000 0 7163378.001 24320156.581 -2870079.989 10 0 59394 63000.00000 0 7353927.190 24431824.088 339098.174 10 0 59394 63900.00000 0 7422470.268 24156796.418 3541696.658 10 0 59394 64800.00000 0 7318718.079 23518666.052 6675573.688 10 0 59394 65700.00000 0 6998854.230 22552694.842 9679942.813 10 0 59394 66600.00000 0 6427628.798 21304287.014 12496548.461 10 0 59394 67500.00000 0 5580095.122 19827058.285 15070790.671 10 0 59394 68400.00000 0 4442916.179 18180582.454 17352777.590 10 0 59394 69300.00000 0 3015185.174 16427909.952 19298285.840 10 0 59394 70200.00000 0 1308725.242 14632962.018 20869610.878 10 0 59394 71100.00000 0 -652145.219 12857908.977 22036291.698 10 0 59394 72000.00000 0 -2831372.850 11160641.474 22775696.561 10 0 59394 72900.00000 0 -5182424.916 9592439.395 23073459.111 10 0 59394 73800.00000 0 -7649989.427 8195934.798 22923756.905 10 0 59394 74700.00000 0 -10172050.584 7003453.005 22329427.118 10 0 59394 75600.00000 0 -12682254.922 6035800.272 21301917.067 10 0 59394 76500.00000 0 -15112471.348 5301548.017 19861070.044 10 0 59394 77400.00000 0 -17395439.875 4796843.115 18034749.851 10 0 59394 78300.00000 0 -19467399.977 4505751.925 15858310.384 10 0 59394 79200.00000 0 -21270589.813 4401123.514 13373919.442 10 0 59394 80100.00000 0 -22755512.438 4445935.838 10629748.882 10 0 59394 81000.00000 0 -23882874.399 4595068.233 7679045.960 10 0 59394 81900.00000 0 -24625115.400 4797425.400 4579103.128 10 0 59394 82800.00000 0 -24967464.450 4998323.039 1390146.095 10 0 59394 83700.00000 0 -24908477.689 5142033.785 -1825838.301 10 0 59394 84600.00000 0 -24460034.734 5174385.033 -5006311.324 10 0 59394 85500.00000 0 -23646793.308 5045297.710 -8089404.441 10 0 59395 0.00000 0 -22505124.878 4711157.358 -11015129.733 10 0 59395 900.00000 0 -21081575.877 4136915.352 -13726554.542 10 0 59395 1800.00000 0 -19430919.864 3297831.236 -16170915.742 10 0 59395 2700.00000 0 -17613882.398 2180778.862 -18300652.359 10 0 59395 3600.00000 0 -15694634.990 785062.056 -20074335.195 10 0 59395 4500.00000 0 -13738163.759 -877297.406 -21457475.265 10 0 59395 5400.00000 0 -11807623.552 -2781812.148 -22423195.311 10 0 59395 6300.00000 0 -9961788.569 -4892312.581 -22952751.458 10 0 59395 7200.00000 0 -8252706.297 -7162229.209 -23035895.127 10 0 59395 8100.00000 0 -6723652.562 -9536320.989 -22671068.580 10 0 59395 9000.00000 0 -5407472.636 -11952778.063 -21865430.669 10 0 59395 9900.00000 0 -4325376.921 -14345611.446 -20634712.648 10 0 59395 10800.00000 0 -3486240.394 -16647230.334 -19002907.180 10 0 59395 11700.00000 0 -2886433.793 -18791099.818 -17001796.781 10 0 59395 12600.00000 0 -2510192.113 -20714368.325 -14670331.094 10 0 59395 13500.00000 0 -2330503.363 -22360355.455 -12053865.244 10 0 59395 14400.00000 0 -2310478.661 -23680796.690 -9203274.200 10 0 59395 15300.00000 0 -2405144.577 -24637751.510 -6173960.610 10 0 59395 16200.00000 0 -2563580.850 -25205095.723 -3024775.604 10 0 59395 17100.00000 0 -2731312.181 -25369536.165 183126.246 10 0 59395 18000.00000 0 -2852852.227 -25131105.979 3387475.174 10 0 59395 18900.00000 0 -2874291.629 -24503120.556 6526094.423 10 0 59395 19800.00000 0 -2745820.260 -23511596.729 9538104.787 10 0 59395 20700.00000 0 -2424076.813 -22194160.310 12365102.026 10 0 59395 21600.00000 0 -1874226.350 -20598488.314 14952284.519 10 0 59395 22500.00000 0 -1071677.921 -18780351.417 17249509.681 10 0 59395 23400.00000 0 -3369.694 -16801338.704 19212259.150 10 0 59395 24300.00000 0 1331432.931 -14726359.588 20802494.809 10 0 59395 25200.00000 0 2920860.409 -12621026.723 21989389.862 10 0 59395 26100.00000 0 4740695.844 -10549028.400 22749921.536 10 0 59395 27000.00000 0 6755155.936 -8569599.050 23069314.672 10 0 59395 27900.00000 0 8918164.980 -6735192.148 22941328.050 10 0 59395 28800.00000 0 11175070.266 -5089451.479 22368378.117 10 0 59395 29700.00000 0 13464729.092 -3665564.262 21361497.584 10 0 59395 30600.00000 0 15721882.129 -2485063.862 19940129.249 10 0 59395 31500.00000 0 17879715.610 -1557131.433 18131758.289 10 0 59395 32400.00000 0 19872506.856 -878425.080 15971389.215 10 0 59395 33300.00000 0 21638243.632 -433443.335 13500876.530 10 0 59395 34200.00000 0 23121108.415 -195407.514 10768121.080 10 0 59395 35100.00000 0 24273723.793 -127625.644 7826146.766 10 0 59395 36000.00000 0 25059064.779 -185280.367 4732074.847 10 0 59395 36900.00000 0 25451957.243 -317565.115 1546015.466 10 0 59395 37800.00000 0 25440098.917 -470077.851 -1670102.079 10 0 59395 38700.00000 0 25024559.271 -587370.488 -4853737.323 10 0 59395 39600.00000 0 24219736.503 -615545.187 -7942960.691 10 0 59395 40500.00000 0 23052772.897 -504786.524 -10877665.098 10 0 59395 41400.00000 0 21562452.704 -211721.027 -13600742.708 10 0 59395 42300.00000 0 19797628.778 298497.085 -16059202.995 10 0 59395 43200.00000 0 17815244.115 1050463.587 -18205209.699 10 0 59395 44100.00000 0 15678031.538 2057239.487 -19997015.966 10 0 59395 45000.00000 0 13451988.381 3319559.250 -21399779.124 10 0 59395 45900.00000 0 11203732.191 4825566.564 -22386239.206 10 0 59395 46800.00000 0 8997848.323 6551089.771 -22937248.157 10 0 59395 47700.00000 0 6894340.363 8460446.234 -23042139.689 10 0 59395 48600.00000 0 4946289.632 10507742.625 -22698932.988 10 0 59395 49500.00000 0 3197820.964 12638617.303 -21914366.691 10 0 59395 50400.00000 0 1682458.907 14792352.213 -20703762.863 10 0 59395 51300.00000 0 421941.874 16904266.403 -19090723.909 10 0 59395 52200.00000 0 -574457.630 18908291.356 -17106668.561 10 0 59395 53100.00000 0 -1310079.742 20739620.617 -14790216.162 10 0 59395 54000.00000 0 -1800486.588 22337323.175 -12186431.366 10 0 59395 54900.00000 0 -2072552.321 23646811.436 -9345944.077 10 0 59395 55800.00000 0 -2163073.817 24622060.716 -6323961.966 10 0 59395 56700.00000 0 -2116962.066 25227487.628 -3179194.977 10 0 59395 57600.00000 0 -1985091.906 25439409.010 27287.048 10 0 59395 58500.00000 0 -1821901.951 25247020.719 3233241.053 10 0 59395 59400.00000 0 -1682846.983 24652855.761 6376458.527 10 0 59395 60300.00000 0 -1621811.070 23672703.084 9395970.720 10 0 59395 61200.00000 0 -1688591.090 22334990.955 12233227.856 10 0 59395 62100.00000 0 -1926557.172 20679661.138 14833229.626 10 0 59395 63000.00000 0 -2370588.918 18756581.212 17145585.474 10 0 59395 63900.00000 0 -3045374.519 16623561.469 19125484.553 10 0 59395 64800.00000 0 -3964144.574 14344058.928 20734557.370 10 0 59395 65700.00000 0 -5127894.254 11984663.739 21941613.178 10 0 59395 66600.00000 0 -6525127.051 9612471.982 22723239.630 10 0 59395 67500.00000 0 -8132131.791 7292453.267 23064253.760 10 0 59395 68400.00000 0 -9913782.493 5084921.516 22957996.083 10 0 59395 69300.00000 0 -11824829.050 3043213.022 22406462.270 10 0 59395 70200.00000 0 -13811626.363 1211667.213 21420269.805 10 0 59395 71100.00000 0 -15814231.402 -376006.938 20018459.769 10 0 59395 72000.00000 0 -17768782.094 -1697911.604 18228136.907 10 0 59395 72900.00000 0 -19610060.055 -2744639.427 16083953.998 10 0 59395 73800.00000 0 -21274131.105 -3519423.644 13627449.426 10 0 59395 74700.00000 0 -22700953.691 -4037753.076 10906249.819 10 0 59395 75600.00000 0 -23836846.261 -4326468.493 7973152.268 10 0 59395 76500.00000 0 -24636709.953 -4422378.625 4885103.226 10 0 59395 77400.00000 0 -25065912.729 -4370454.451 1702093.639 10 0 59395 78300.00000 0 -25101755.022 -4221678.410 -1514008.313 10 0 59395 79200.00000 0 -24734454.287 -4030640.068 -4700663.886 10 0 59395 80100.00000 0 -23967606.038 -3852980.718 -7795885.707 10 0 59395 81000.00000 0 -22818101.070 -3742796.093 -10739450.492 10 0 59395 81900.00000 0 -21315501.570 -3750108.283 -13474078.070 10 0 59395 82800.00000 0 -19500901.842 -3918515.088 -15946552.867 10 0 59395 83700.00000 0 -17425321.201 -4283117.537 -18108765.317 10 0 59395 84600.00000 0 -15147696.363 -4868814.412 -19918652.419 10 0 59395 85500.00000 0 -12732557.589 -5689036.921 -21341018.765 99